Regional Weather Roundup
Issued by NWS

Home | Current Version | Previous Version | Text Only | Print | Product List | Glossary On
Versions: 1 2 3 4 5 6 7 8 9 10 11 12 13 14 15 16 17 18 19 20 21 22 23 24 25 26 27 28 29 30 31 32 33 34 35 36 37 38 39 40 41 42 43 44 45 46 47 48 49 50
000
ASUS43 KIND 281909
RWRIN

WEATHER ROUNDUP FOR INDIANA
NATIONAL WEATHER SERVICE INDIANAPOLIS IN
300 PM EDT TUE APR 28 2015

NOTE: "FAIR" INDICATES FEW OR NO CLOUDS BELOW 12,000 FEET WITH NO
SIGNIFICANT WEATHER AND/OR OBSTRUCTIONS TO VISIBILITY.

* - STATION DOES NOT REPORT WEATHER SUCH AS PRECIPITATION OR FOG.

+ - STATION NOT QUALITY CONTROLLED BY THE NATIONAL WEATHER SERVICE.
    USE DATA WITH CAUTION...ESPECIALLY DEWPOINT AND RELATIVE
    HUMIDITY OBSERVATIONS.

INZ001>003-010>013-019-020-282000-
NORTHWEST INDIANA

CITY           SKY/WX    TMP DP  RH WIND       PRES   REMARKS
GARY /AIRPORT/ SUNNY     50  34  53 NE12      30.11
KNOX *+        MOSUNNY   59  14  17 CALM      30.06F
LA PORTE +     SUNNY     58  38  46 N10       30.08F
MICHIGAN CITY+ SUNNY     50  32  50 NW9       30.10F
MONTICELLO +   SUNNY     58  38  48 CALM      30.06F
VALPARAISO     SUNNY     58  35  42 N9        30.08F

$$

LMZ046-743>745-282000-
SOUTHERN LAKE MICHIGAN

STATION/POSITION TIME  TEMP    WIND        PRES    WAVE
                       AIR SEA DIR/SP/G            HT
                 (UTC) (F)     (DEG/KT/KT) (MB)    (FT)
BURNS HARBOR     1900   42      30/  9/ 10 1020.0S
MICHIGAN CITY    1900   40      10/  8/  9   N/A
5NW MICH CITY    1900   40 46   20/  8/ 10   N/A     1

$$

INZ004-005-014>016-021>024-282000-
NORTH CENTRAL INDIANA

CITY           SKY/WX    TMP DP  RH WIND       PRES   REMARKS
ELKHART        PTSUNNY   59  34  38 NW6       30.06F
GOSHEN         SUNNY     59  38  45 CALM      30.06F
LOGANSPORT +   MOSUNNY   59  32  36 CALM      30.07F
PERU/GRISSOM   SUNNY     58  37  44 VRB2      30.05F
ROCHESTER +    MOSUNNY   63  36  36 CALM      30.07F
SOUTH BEND     MOSUNNY   58  35  42 VRB7      30.08F
WARSAW +       MOSUNNY   59  36  41 CALM      30.06F

$$

INZ006>009-017-018-025>027-282000-
NORTHEAST INDIANA

CITY           SKY/WX    TMP DP  RH WIND       PRES   REMARKS
ANGOLA *+      MOSUNNY   57  37  47 E5        30.05F
AUBURN +       MOSUNNY   61  34  36 SW6       30.06F
FORT WAYNE     MOSUNNY   60  36  40 N5        30.06F
HUNTINGTON +   SUNNY     58  35  42 N3        30.06F

$$

INZ028-029-035-036-043>045-051>053-282000-
WEST CENTRAL INDIANA

CITY           SKY/WX    TMP DP  RH WIND       PRES   REMARKS
CRAWFORDSVL +  SUNNY     56  29  35 N5        30.06F
GREENCASTLE +  SUNNY     59  34  38 NE9       30.05F
LAFAYETTE      MOSUNNY   59  39  47 VRB6      30.06F
TERRE HAUTE    SUNNY     62  38  40 NE12      30.04F

$$

INZ030>032-037>040-046>048-054>057-064-065-282000-
CENTRAL INDIANA

CITY           SKY/WX    TMP DP  RH WIND       PRES   REMARKS
ANDERSON       SUNNY     57  28  33 CALM      30.06F
CP ATTERBURY + SUNNY     61  37  41 NE5G10    30.05F
FRANKFORT +    SUNNY     59  38  45 N6        30.08F
GREENWOOD *+   SUNNY     59  32  36 NE8       30.05F
INDIANAPOLIS   MOSUNNY   60  37  42 N9G16     30.03F
-EAGLE CREEK   SUNNY     59  37  44 MISG      30.04F
KOKOMO *+      SUNNY     59  37  44 N6        30.06F
MARION +       SUNNY     58  35  43 NE6       30.06F
MT COMFORT *+  SUNNY     59  25  27 N7        30.05F
SHELBYVILLE    SUNNY     62  37  39 NE13      30.03F
ZIONSVILLE +   SUNNY     58  35  42 CALM      30.06F

$$

INZ033-034-041-042-049-050-058-059-282000-
EAST CENTRAL INDIANA

CITY           SKY/WX    TMP DP  RH WIND       PRES   REMARKS
MUNCIE         SUNNY     59  37  44 N5        30.05F

$$

INZ060-061-067>069-081>083-085>088-282000-
SOUTHWEST INDIANA

CITY           SKY/WX    TMP DP  RH WIND       PRES   REMARKS
EVANSVILLE     SUNNY     63  39  41 NE10      30.01F
HUNTINGBURG *+ SUNNY     61  39  44 N7G18     30.02F
WASHINGTON +   SUNNY     62  31  31 NE5       30.02F

$$

INZ062-063-066-070>080-084-089>092-282000-
SOUTH CENTRAL AND SOUTHEAST INDIANA

CITY           SKY/WX    TMP DP  RH WIND       PRES   REMARKS
BEDFORD +      SUNNY     61  34  36 NE7       30.02F
BLOOMINGTON    SUNNY     63  36  36 VRB3      30.03F
MADISON *+     SUNNY     61  32  33 E9        30.03F
NORTH VERNON + SUNNY     61  39  44 NE6       30.02F
SEYMOUR +      SUNNY     63  39  42 NE5       30.02F

$$




USA.gov is the U.S. government's official web portal to all federal, state and local government web resources and services.